Terminal Aerodrome Forecast
Issued by NWS Cleveland, OH

Home | Current Version | Previous Version | Graphics & Text | Print | Product List | Glossary On
Versions: 1 2 3 4 5 6 7 8 9 10 11 12 13 14 15 16 17 18 19 20 21 22 23 24 25 26 27 28 29 30 31 32
000
FTUS41 KCLE 282054 AAB
TAFCLE
TAF AMD
KCLE 282054Z 2821/2924 20010KT P6SM VCTS SCT045CB BKN250
     FM290000 20005KT P6SM BKN250
     FM290900 VRB02KT 4SM BR OVC250
     FM291300 20008KT P6SM BKN250
     FM291800 20008KT P6SM VCTS SCT035CB BKN250=

USA.gov is the U.S. government's official web portal to all federal, state and local government web resources and services.